Monroe, MI

4:41 PM EDT on April 26, 2017 (GMT -0400)
Custer

Weather History for KTTF - September, 2013

Change the Weather History Date:

Wednesday, September 25, 2013

  Actual Average Record
Temperature  
Mean Temperature 60 °F -  
Max Temperature 71 °F 67 °F 88 °F (1935)
Min Temperature 48 °F 48 °F 34 °F (1942)
Degree Days  
Heating Degree Days 6    
Growing Degree Days 10 (Base 50)    
Moisture  
Dew Point 55 °F    
Average Humidity 86    
Maximum Humidity 100    
Minimum Humidity 60    
Precipitation  
Precipitation 0.00 in - - ()
Sea Level Pressure  
Sea Level Pressure 29.97 in    
Wind  
Wind Speed 3 mph (ENE)    
Max Wind Speed 9 mph    
Max Gust Speed -    
Visibility 8 miles    
Events Fog    
Averages and records for this station are not official NWS values.
T = Trace of Precipitation, MM = Missing Value Source: NWS Daily Summary

Daily Weather History Graph

Daily Weather History Graph

Search for Another Location

Airport or City:

Trip Planner

Search our weather history database for the weather conditions in past years. The results will help you decide how hot, cold, wet, or windy it might be!

Date:

Astronomy

Sep. 25, 2013 Rise Set
Actual Time 7:24 AM EDT 7:25 PM EDT
Civil Twilight 6:56 AM EDT 7:53 PM EDT
Nautical Twilight 6:24 AM EDT 8:25 PM EDT
Astronomical Twilight 5:51 AM EDT 8:58 PM EDT
Moon 11:25 PM EDT (9/25) 1:34 PM EDT (9/25)
Length of Visible Light 12h 56m
Length of Day
12h 00m
Waning Gibbous, 64% of the Moon is Illuminated
Sep 25
Waning Gibbous
Sep 26
Last Quarter
Oct 4
New
Oct 11
First Quarter
Oct 18
Full

Hourly Weather History & Observations

Time (EDT) Temp. Dew Point Humidity Pressure Visibility Wind Dir Wind Speed Gust Speed Precip Events Conditions
12:12 AM 48.2 °F 48.2 °F 100% 29.99 in 2.5 mi Calm Calm - N/A   Scattered Clouds
12:32 AM 53.6 °F 51.8 °F 94% 29.99 in 10.0 mi ENE 4.6 mph - N/A   Clear
12:53 AM 53.6 °F 51.8 °F 94% 29.99 in 10.0 mi NE 4.6 mph - N/A   Clear
1:14 AM 53.6 °F 51.8 °F 94% 29.98 in 10.0 mi ENE 4.6 mph - N/A   Clear
1:34 AM 55.4 °F 51.8 °F 88% 29.98 in 10.0 mi NE 3.5 mph - N/A   Clear
1:54 AM 53.6 °F 51.8 °F 94% 29.98 in 10.0 mi Calm Calm - N/A   Clear
2:14 AM 53.6 °F 51.8 °F 94% 29.98 in 10.0 mi Calm Calm - N/A   Clear
2:34 AM 53.6 °F 51.8 °F 94% 29.98 in 10.0 mi Calm Calm - N/A   Clear
2:54 AM 51.8 °F 50.0 °F 94% 29.97 in 7.0 mi North 3.5 mph - N/A   Clear
3:14 AM 51.8 °F 48.2 °F 88% 29.97 in 7.0 mi Calm Calm - N/A   Clear
3:34 AM 50.0 °F 48.2 °F 94% 29.97 in 4.0 mi North 3.5 mph - N/A   Clear
3:54 AM 50.0 °F 50.0 °F 100% 29.96 in 4.0 mi North 3.5 mph - N/A   Clear
4:14 AM 50.0 °F 48.2 °F 94% 29.96 in 5.0 mi Calm Calm - N/A   Clear
4:35 AM 50.0 °F 50.0 °F 100% 29.96 in 5.0 mi North 3.5 mph - N/A   Clear
4:55 AM 51.8 °F 50.0 °F 94% 29.95 in 7.0 mi NNE 3.5 mph - N/A   Clear
5:15 AM 51.8 °F 51.8 °F 100% 29.95 in 10.0 mi NNE 3.5 mph - N/A   Clear
5:35 AM 51.8 °F 50.0 °F 94% 29.96 in 7.0 mi Calm Calm - N/A   Clear
5:55 AM 50.0 °F 48.2 °F 94% 29.96 in 7.0 mi Calm Calm - N/A   Clear
6:15 AM 50.0 °F 48.2 °F 94% 29.97 in 7.0 mi North 3.5 mph - N/A   Clear
6:35 AM 50.0 °F 48.2 °F 94% 29.97 in 5.0 mi North 4.6 mph - N/A   Clear
6:55 AM 51.8 °F 51.8 °F 100% 29.97 in 5.0 mi North 4.6 mph - N/A   Clear
7:15 AM 51.8 °F 51.8 °F 100% 29.97 in 5.0 mi North 5.8 mph - N/A   Clear
7:35 AM 51.8 °F 51.8 °F 100% 29.97 in 5.0 mi NNE 5.8 mph - N/A   Clear
7:56 AM 53.6 °F 53.6 °F 100% 29.97 in 5.0 mi NE 5.8 mph - N/A   Clear
8:16 AM 53.6 °F 53.6 °F 100% 29.97 in 5.0 mi NE 5.8 mph - N/A   Clear
8:36 AM 55.4 °F 53.6 °F 94% 29.98 in 7.0 mi NE 5.8 mph - N/A   Clear
8:56 AM 55.4 °F 53.6 °F 94% 29.98 in 7.0 mi NE 5.8 mph - N/A   Clear
9:16 AM 55.4 °F 55.4 °F 100% 29.98 in 7.0 mi NE 3.5 mph - N/A   Clear
9:36 AM 57.2 °F 55.4 °F 94% 29.98 in 7.0 mi NNE 4.6 mph - N/A   Clear
9:56 AM 60.8 °F 57.2 °F 88% 29.99 in 10.0 mi NNE 5.8 mph - N/A   Clear
10:16 AM 60.8 °F 57.2 °F 88% 29.99 in 10.0 mi NE 6.9 mph - N/A   Clear
10:36 AM 62.6 °F 57.2 °F 82% 29.99 in 10.0 mi ENE 8.1 mph - N/A   Clear
10:57 AM 64.4 °F 57.2 °F 77% 29.99 in 10.0 mi ENE 6.9 mph - N/A   Clear
11:12 AM 64.4 °F 57.2 °F 77% 29.99 in 10.0 mi ENE 6.9 mph - N/A   Clear
11:32 AM 64.4 °F 57.2 °F 77% 30.00 in 10.0 mi NNE 4.6 mph - N/A   Scattered Clouds
11:52 AM 66.2 °F 57.2 °F 73% 29.99 in 10.0 mi East 5.8 mph - N/A   Mostly Cloudy
12:12 PM 66.2 °F 57.2 °F 73% 29.99 in 10.0 mi ENE 8.1 mph - N/A   Scattered Clouds
12:32 PM 68.0 °F 59.0 °F 73% 29.99 in 10.0 mi East 6.9 mph - N/A   Scattered Clouds
12:52 PM 68.0 °F 57.2 °F 68% 29.98 in 10.0 mi ESE 8.1 mph - N/A   Mostly Cloudy
1:12 PM 69.8 °F 57.2 °F 64% 29.98 in 10.0 mi ENE 8.1 mph - N/A   Scattered Clouds
1:32 PM 71.6 °F 57.2 °F 60% 29.97 in 10.0 mi East 6.9 mph - N/A   Clear
1:52 PM 69.8 °F 57.2 °F 64% 29.96 in 10.0 mi ENE 4.6 mph - N/A   Clear
2:13 PM 71.6 °F 59.0 °F 64% 29.96 in 10.0 mi SE 9.2 mph - N/A   Scattered Clouds
2:33 PM 71.6 °F 59.0 °F 64% 29.95 in 10.0 mi East 9.2 mph - N/A   Scattered Clouds
2:53 PM 71.6 °F 60.8 °F 69% 29.95 in 10.0 mi East 6.9 mph - N/A   Scattered Clouds
3:13 PM 71.6 °F 60.8 °F 69% 29.94 in 10.0 mi SE 6.9 mph - N/A   Scattered Clouds
3:33 PM 71.6 °F 60.8 °F 69% 29.94 in 10.0 mi ESE 5.8 mph - N/A   Clear
3:53 PM 71.6 °F 60.8 °F 69% 29.94 in 10.0 mi ESE 6.9 mph - N/A   Clear
4:13 PM 71.6 °F 60.8 °F 69% 29.93 in 10.0 mi East 6.9 mph - N/A   Clear
4:33 PM 71.6 °F 60.8 °F 69% 29.93 in 10.0 mi SE 6.9 mph - N/A   Clear
4:54 PM 69.8 °F 59.0 °F 68% 29.93 in 10.0 mi East 5.8 mph - N/A   Clear
5:14 PM 69.8 °F 59.0 °F 68% 29.93 in 10.0 mi ESE 6.9 mph - N/A   Clear
5:34 PM 66.2 °F 59.0 °F 78% 29.94 in 10.0 mi ESE 4.6 mph - N/A   Clear
5:54 PM 66.2 °F 59.0 °F 78% 29.94 in 10.0 mi SE 4.6 mph - N/A   Clear
6:14 PM 66.2 °F 59.0 °F 78% 29.95 in 10.0 mi SE 3.5 mph - N/A   Clear
6:34 PM 66.2 °F 59.0 °F 78% 29.95 in 10.0 mi Calm Calm - N/A   Clear
6:54 PM 66.2 °F 59.0 °F 78% 29.95 in 10.0 mi Calm Calm - N/A   Clear
7:14 PM 64.4 °F 59.0 °F 83% 29.95 in 10.0 mi Calm Calm - N/A   Clear
7:34 PM 60.8 °F 57.2 °F 88% 29.95 in 10.0 mi Calm Calm - N/A   Clear
7:54 PM 59.0 °F 57.2 °F 94% 29.95 in 10.0 mi Calm Calm - N/A   Clear
8:14 PM 57.2 °F 57.2 °F 100% 29.96 in 10.0 mi Calm Calm - N/A   Clear
8:34 PM 55.4 °F 55.4 °F 100% 29.96 in 10.0 mi Calm Calm - N/A   Clear
8:54 PM 55.4 °F 53.6 °F 94% 29.97 in 1.0 mi Calm Calm - N/A   Mostly Cloudy
9:15 PM 53.6 °F 53.6 °F 100% 29.97 in 0.5 mi Calm Calm - N/A Fog Fog
9:35 PM 53.6 °F 51.8 °F 94% 29.97 in 0.2 mi Calm Calm - N/A Fog Fog
9:55 PM 55.4 °F 55.4 °F 100% 29.97 in 10.0 mi ENE 3.5 mph - N/A   Scattered Clouds
10:15 PM 57.2 °F 53.6 °F 88% 29.97 in 10.0 mi NE 3.5 mph - N/A   Clear
10:35 PM 57.2 °F 51.8 °F 82% 29.97 in 10.0 mi NE 4.6 mph - N/A   Clear
10:55 PM 57.2 °F 51.8 °F 82% 29.97 in 10.0 mi Calm Calm - N/A   Clear
11:15 PM 55.4 °F 51.8 °F 88% 29.97 in 10.0 mi Calm Calm - N/A   Clear
11:36 PM 55.4 °F 51.8 °F 88% 29.98 in 10.0 mi ENE 4.6 mph - N/A   Clear
11:56 PM 55.4 °F 53.6 °F 94% 29.99 in 10.0 mi ENE 3.5 mph - N/A   Clear